16.05.2024;22:00;11
16.05.2024;21:00;9
16.05.2024;20:00;7
16.05.2024;19:00;6
16.05.2024;18:00;6
16.05.2024;17:00;6
16.05.2024;16:00;7
16.05.2024;15:00;10
16.05.2024;14:00;20
16.05.2024;13:00;18
16.05.2024;12:00;25
16.05.2024;11:00;25
16.05.2024;10:00;22
16.05.2024;09:00;18
16.05.2024;08:00;13
16.05.2024;07:00;11
16.05.2024;06:00;14
16.05.2024;05:00;22
16.05.2024;04:00;17
16.05.2024;03:00;6
16.05.2024;02:00;6
16.05.2024;01:00;6
15.05.2024;24:00;7
15.05.2024;23:00;6
15.05.2024;22:00;8
15.05.2024;21:00;11
15.05.2024;20:00;15
15.05.2024;19:00;14
15.05.2024;18:00;16
15.05.2024;17:00;21
15.05.2024;16:00;20
15.05.2024;15:00;15
15.05.2024;14:00;18
15.05.2024;13:00;21
15.05.2024;12:00;28
15.05.2024;11:00;32
15.05.2024;10:00;28
15.05.2024;09:00;17
15.05.2024;08:00;11
15.05.2024;07:00;10
15.05.2024;06:00;7
15.05.2024;05:00;6
15.05.2024;04:00;6
15.05.2024;03:00;6
15.05.2024;02:00;7
15.05.2024;01:00;8
14.05.2024;24:00;8
14.05.2024;23:00;9
14.05.2024;22:00;11
14.05.2024;21:00;11
14.05.2024;20:00;11
14.05.2024;19:00;11
14.05.2024;18:00;11
14.05.2024;17:00;12
14.05.2024;16:00;12
14.05.2024;15:00;14
14.05.2024;14:00;16
14.05.2024;13:00;17
14.05.2024;12:00;16
14.05.2024;11:00;15
14.05.2024;10:00;16
14.05.2024;09:00;16
14.05.2024;08:00;16
14.05.2024;07:00;18
14.05.2024;06:00;15
14.05.2024;05:00;15
14.05.2024;04:00;14
14.05.2024;03:00;14
14.05.2024;02:00;20
14.05.2024;01:00;24
13.05.2024;24:00;23
13.05.2024;23:00;25
13.05.2024;22:00;26
13.05.2024;21:00;18
13.05.2024;20:00;15
13.05.2024;19:00;13
13.05.2024;18:00;15
13.05.2024;17:00;16
13.05.2024;16:00;21
13.05.2024;15:00;19
13.05.2024;14:00;22
13.05.2024;13:00;20
13.05.2024;12:00;22
13.05.2024;11:00;21
13.05.2024;10:00;22
13.05.2024;09:00;33
13.05.2024;08:00;52
13.05.2024;07:00;25
13.05.2024;06:00;21
13.05.2024;05:00;19
13.05.2024;04:00;18
13.05.2024;03:00;16
13.05.2024;02:00;17
13.05.2024;01:00;15
12.05.2024;24:00;14
12.05.2024;23:00;13
12.05.2024;22:00;13
12.05.2024;21:00;11
12.05.2024;20:00;10
12.05.2024;19:00;10
12.05.2024;18:00;10
12.05.2024;17:00;10
12.05.2024;16:00;11
12.05.2024;15:00;12
12.05.2024;14:00;11
12.05.2024;13:00;11
12.05.2024;12:00;11
12.05.2024;11:00;14
12.05.2024;10:00;17
12.05.2024;09:00;20
12.05.2024;08:00;21
12.05.2024;07:00;20
12.05.2024;06:00;26
12.05.2024;05:00;27
12.05.2024;04:00;22
12.05.2024;03:00;23
12.05.2024;02:00;25
12.05.2024;01:00;21
11.05.2024;24:00;18
11.05.2024;23:00;19
11.05.2024;22:00;16
11.05.2024;21:00;12
11.05.2024;20:00;9
11.05.2024;19:00;10
11.05.2024;18:00;10
11.05.2024;17:00;11
11.05.2024;16:00;13
11.05.2024;15:00;15
11.05.2024;14:00;17
11.05.2024;13:00;19
11.05.2024;12:00;17
11.05.2024;11:00;18
11.05.2024;10:00;19
11.05.2024;09:00;21
11.05.2024;08:00;30
11.05.2024;07:00;28
11.05.2024;06:00;25
11.05.2024;05:00;24
11.05.2024;04:00;28
11.05.2024;03:00;35
11.05.2024;02:00;41
11.05.2024;01:00;38
